EKEB

Esbjerg

Airport
ICAO code
EKEB
Summary
ICAO Region
EUR
ICAO Territory
Location

Esbjerg,

Elevation
97 ft
Coordinates
55° 31' 33" N , 8° 33' 12" E
KCC
Metar
Observation
EKEB 031950Z AUTO 24004KT 9999 FEW220/// 10/10 Q1022
Station
Esbjerg
Date/Time
2022-10-03 19:50:00
Wind direction
240°
Wind speed
04 kts
Lowest cloud amount
few clouds
Temperature
10°C
Dew point
10°C
Humidity
100%
QNH
1022 hPa
Weather condition
n/a

Description

Esbjerg Airport (IATA: EBJ) is a small airport located 5 nm northeast of Esbjerg, Denmark.

Climatology

Temperate Marine climate/Oceanic climate (Köppen climate classification Cfb). Moderately cool summer and comparatively warm winter with a temperature range of only 14°C. Prevailing south-westerly winds from the Atlantic Ocean.

Runways

Designator Length Width Surface Rops
8/26 2599 45 ASP Yes/Yes

Airport map

Aerial View

SKYbrary Partners:

Safety knowledge contributed by: